Observations for Trim Market St
| Time | AQI | Temp °C | Hum % | Pres Pa | CO μg/m³ | H₂S μg/m³ | NO μg/m³ | NO₂ μg/m³ | O₃ μg/m³ | SO₂ μg/m³ | PM1 μg/m³ | PM2.5 μg/m³ | PM10 μg/m³ |
|---|---|---|---|---|---|---|---|---|---|---|---|---|---|
| Wednesday 26 August 2026 | |||||||||||||
| 19:14 | 3 | 23.5 | 57 | 57,699 | 0 | 1.2 | 1.02 | 16.78 | 89.62 | 0 | 4.99 | 8.23 | 11.77 |
| 19:13 | 3 | 23.5 | 56 | 57,691 | 0 | 2.15 | 1.01 | 17.39 | 91.08 | 0 | 5.7 | 9.25 | 13.89 |
| 19:12 | 3 | 23.6 | 56 | 57,676 | 0 | 1.73 | 1 | 17.26 | 89.16 | 0 | 4.99 | 7.23 | 10.36 |
| 19:11 | 3 | 23.6 | 56 | 57,659 | 0 | 2.36 | 1.03 | 17.1 | 89.79 | 0 | 6.41 | 8.75 | 13.19 |
| 19:09 | 3 | 23.7 | 56 | 57,596 | 0 | 2.89 | 1.13 | 17.46 | 91.45 | 0 | 4.99 | 7.26 | 12.5 |
| 19:08 | 3 | 23.8 | 56 | 57,548 | 0 | 2.94 | 1.12 | 18.59 | 89.62 | 0 | 3.56 | 5.75 | 7.53 |
| 19:07 | 3 | 23.8 | 56 | 57,486 | 0 | 2.81 | 1.16 | 18.92 | 89 | 0 | 3.56 | 6.77 | 9.67 |
| 19:03 | 3 | 24 | 55 | 57,167 | 0 | 3.99 | 1.16 | 21.08 | 89.59 | 0 | 4.28 | 7.32 | 9.68 |
| 18:58 | 3 | 24.2 | 54 | 56,350 | 0 | 2.8 | 1.09 | 17.38 | 97.03 | 0 | 4.28 | 6.38 | 9.7 |
| 18:53 | 3 | 24.5 | 53 | 55,820 | 0 | 0 | 1.05 | 16.71 | 88.17 | 0 | 2.85 | 5.92 | 7.53 |
| 18:52 | 3 | 24.5 | 52 | 55,887 | 0 | 0 | 1.05 | 14.49 | 95.23 | 0 | 3.56 | 5.42 | 6.8 |
| 18:48 | 3 | 24.7 | 52 | 56,353 | 0 | 0 | 1.06 | 13.38 | 99.77 | 0 | 3.56 | 5.43 | 6.8 |
| 18:47 | 3 | 24.7 | 52 | 56,428 | 0 | 0 | 1.07 | 13.66 | 99.96 | 0 | 5.7 | 8.5 | 11.19 |
| 18:46 | 2 | 24.8 | 52 | 56,479 | 0 | 0 | 1.12 | 13.54 | 95.87 | 0 | 4.99 | 6.97 | 11.19 |
| 18:45 | 3 | 24.8 | 52 | 56,487 | 0 | 0 | 1.09 | 13.54 | 97.02 | 0 | 4.28 | 6.46 | 8.26 |
| 18:44 | 3 | 24.8 | 52 | 56,344 | 0 | 0 | 1.11 | 13.32 | 96.52 | 0 | 3.56 | 6.46 | 8.26 |
| 18:43 | 2 | 24.9 | 52 | 56,114 | 0 | 0 | 1.09 | 14.2 | 95.61 | 0 | 4.99 | 6.97 | 9 |
| 18:42 | 3 | 24.9 | 52 | 56,152 | 0 | 0 | 1.15 | 13.64 | 97.69 | 0 | 4.28 | 6.97 | 9 |
| 18:41 | 3 | 24.9 | 52 | 56,140 | 0 | 0.35 | 1.05 | 15.09 | 98.4 | 0 | 4.28 | 6.47 | 8.26 |
| 18:40 | 2 | 25 | 52 | 56,298 | 0 | 0.88 | 1.04 | 14.74 | 94.84 | 0 | 3.56 | 6.98 | 9 |